Regional Weather Roundup
Issued by NWS State College, PA

Home | Current Version | Previous Version | Text Only | Print | Product List | Glossary On
Versions: 1 2 3 4 5 6 7 8 9 10 11 12 13 14 15 16 17 18 19 20 21 22 23 24 25 26 27 28 29 30 31 32 33 34 35 36 37 38 39 40 41 42 43 44 45 46 47 48 49 50
000
ASUS41 KCTP 272310
RWRCTP

REGIONAL WEATHER ROUNDUP
NATIONAL WEATHER SERVICE STATE COLLEGE PA
600 PM EST THU NOV 27 2014

Note: "fair" indicates few or no clouds below 12,000 feet with no
significant weather and/or obstructions to visibility.

* = STATION THAT DOES NOT REPORT PRECIPITATION /E.G. RAIN...SNOW...ETC/
    THUNDER OR FOG.

PAZ002>004-007>009-013>016-020>023-029>032-280000-
WESTERN PENNSYLVANIA

CITY           SKY/WX    TMP DP  RH WIND       PRES   REMARKS
ERIE           FLURRIES  33  24  69 W15G22    30.12R
MEADVILLE      LGT SNOW  28  24  85 W12       30.11R FOG
FRANKLIN*      CLOUDY    28  19  69 W9        30.12R
NEW CASTLE       N/A     29  22  75 W9        30.17R
BEAVER COUNTY  NOT AVBL
BUTLER*        CLOUDY    28  25  86 W6        30.15R
PITTSBURGH INT MOCLDY    30  24  78 W9        30.15R
PITTSBURGH     CLOUDY    30  21  69 W13G21    30.14R
INDIANA*       CLOUDY    30  28  93 NW7G15    30.14R FOG
LATROBE        LGT SNOW  32  30  93 W14G25    30.15R
WASHINGTON CO* CLOUDY    28  23  80 W7        30.18R
$$

PAZ004>006-010>012-017>019-024>028-033>037-041-042-045-046-049>053-280000-
CENTRAL PENNSYLVANIA

CITY           SKY/WX    TMP DP  RH WIND       PRES   REMARKS
BRADFORD       LGT SNOW  28  23  81 W13       30.01S
DUBOIS         LGT SNOW  29  25  85 NW13G24   30.05R FOG
CLEARFIELD     LGT SNOW  30  28  92 W8        30.06R FOG
JOHNSTOWN      LGT SNOW  28  25  88 NW20G25   30.03R VSB 1   WCI  15
ALTOONA        LGT SNOW  31  30  96 NW6       30.07R VSB 1
STATE COLLEGE  CLOUDY    32  27  80 W6        30.05S
WILLIAMSPORT   CLOUDY    32  28  85 W3        30.06R
SELINSGROVE    MOCLDY    30  29  96 CALM      30.08R
FT INDIANTOWN  PTCLDY    34  28  80 W5        30.08R
CAPITAL CITY   CLOUDY    35  30  82 W5        30.09R
HARRISBURG     MOCLDY    34  30  85 NW7       30.08R
YORK           CLOUDY    35  31  85 N3        30.08R
$$

PAZ038>040-043-044-047-048-054-055-060>062-067>071-280000-
EASTERN PENNSYLVANIA

CITY           SKY/WX    TMP DP  RH WIND       PRES   REMARKS
SCRANTON       CLEAR     30  21  69 W10       30.03R
MOUNT POCONO   PTCLDY    26  19  74 NW10      29.95R
ALLENTOWN      PTCLDY    34  25  69 NW5       30.05R
QUAKERTOWN*    CLEAR     32  28  86 CALM      30.05R
READING        PTCLDY    34  25  69 NW7       30.06R
LANCASTER      CLOUDY    33  27  78 NW6       30.08R
COATESVILLE    CLEAR     30  28  93 NW6       30.06R
POTTSTOWN      CLEAR     33  26  75 NW5       30.07R
BLUE BELL      CLEAR     36  30  80 CALM      30.05R
DOYLESTOWN     PTCLDY    32  28  85 W6        30.04R
WILLOW GROVE   NOT AVBL
NORTH PHILA    CLEAR     36  26  67 W6        30.07R
PHILADELPHIA   PTCLDY    38  27  64 NW7       30.08R
$$


USA.gov is the U.S. government's official web portal to all federal, state and local government web resources and services.